Regional Weather Roundup
Issued by NWS

Home | Current Version | Previous Version | Text Only | Print | Product List | Glossary On
Versions: 1 2 3 4 5 6 7 8 9 10 11 12 13 14 15 16 17 18 19 20 21 22 23 24 25 26 27 28 29 30 31 32 33 34 35 36 37 38 39 40 41 42 43 44 45 46 47 48 49 50
897
ASUS42 KFFC 261503
RWRGA
WEATHER ROUNDUP FOR GEORGIA
NATIONAL WEATHER SERVICE PEACHTREE CITY GA
1100 AM EDT THU MAY 26 2016

NOTE: "FAIR" INDICATES FEW OR NO CLOUDS BELOW 12,000 FEET WITH NO
SIGNIFICANT WEATHER AND/OR OBSTRUCTIONS TO VISIBILITY.

* = USE WITH CAUTION. THE STATIONS MARKED WITH AN ASTERISK MAY NOT
REPORT WEATHER SUCH AS PRECIPITATION, FOG, OR THUNDER AND ARE NOT
QUALITY CONTROLLED BY NWS.

THE REMARK "TC" DENOTES TEMPERATURE READING IN DEGREES CELSIUS.

GAZ001>058-261600-
NORTH GEORGIA

CITY           SKY/WX    TMP DP  RH WIND       PRES   REMARKS
ATLANTA        MOSUNNY   80  62  54 S5        30.20F
ATHENS         SUNNY     80  63  55 CALM      30.19F
CHAMBLEE       CLOUDY    79  63  57 S3        30.20F
PEACHTREE CITY SUNNY     81  63  54 W3        30.20F
ROME           MOSUNNY   81  63  54 VRB7      30.18S
WEST ATLANTA   MOSUNNY   78  64  61 CALM      30.19F
GAINESVILLE    MOSUNNY   79  60  52 W9        30.23S
CARTERSVILLE   SUNNY     79  63  57 CALM      30.19F


CITY           SKY/WX    TMP DP  RH WIND       PRES   REMARKS
DALTON*        SUNNY     77  63  61 S3        30.19S
LAWRENCEVILLE* SUNNY     79  63  57 W7        30.21S
KENNESAW*      MOSUNNY   77  63  61 CALM      30.16F
CANTON*        SUNNY     72  57  60 CALM      30.22S
BLAIRSVILLE*     N/A    N/A N/A N/A MISG      30.24S
$$

GAZ059>098-102>109-261600-
CENTRAL GEORGIA

CITY           SKY/WX    TMP DP  RH WIND       PRES   REMARKS
AUGUSTA-BUSH   MOSUNNY   81  62  52 SW8       30.19F
AUGUSTA-DANIEL PTSUNNY   82  61  48 S9        30.20F
COLUMBUS       SUNNY     79  65  62 S6        30.19F
MACON          SUNNY     81  66  60 SW7       30.19S
ROBINS AFB     SUNNY     82  67  60 S7        30.19S


CITY           SKY/WX    TMP DP  RH WIND       PRES   REMARKS
LAGRANGE*      SUNNY     84  68  58 SW5       30.19S
SYLVANIA*      SUNNY     82  67  60 S5        30.22S
MILLEDGEVILLE* MOSUNNY   81  64  57 CALM      30.19S
$$

GAZ099>101-110>166-261600-
SOUTH GEORGIA

CITY           SKY/WX    TMP DP  RH WIND       PRES   REMARKS
SAVANNAH       MOSUNNY   81  63  54 VRB3      30.21F
VALDOSTA       SUNNY     81  63  54 SE6       30.19F
ALMA           SUNNY     80  63  55 VRB7      30.20F
ST SIMONS      SUNNY     80  64  58 SE9       30.20F
FT STEWART     SUNNY     80  65  58 CALM      30.19F
ALBANY         SUNNY     83  64  52 MISG      30.21S
HUNTER AFB     SUNNY     82  65  57 SE7       30.18F
MOODY AFB      SUNNY     82  61  49 VRB6      30.19F
BRUNSWICK      MOSUNNY   82  63  51 CALM      30.21S


CITY           SKY/WX    TMP DP  RH WIND       PRES   REMARKS
BAINBRIDGE*    SUNNY     81  68  65 S7        30.19S
MOULTRIE*      SUNNY     81  57  44 SW6       30.21S
VIDALIA*       SUNNY     79  63  57 SW5       30.21F
WAYCROSS*      SUNNY     80  65  60 S3        30.20F
DOUGLAS*       SUNNY     81  61  50 SW6       30.22F
$$




USA.gov is the U.S. government's official web portal to all federal, state and local government web resources and services.